Погода в Народичах

Украина / Житомирская область     51°12′09″N   29°04′50″E
темп.,
°C
ветер,
м/с
пор.,
м/с
влажн.,
%
обл.,
%
осадки,
мм/ч
давл.,
гПа
погр.,
м
7 мая, пт
пт700:00+6зюз346498 0.0 101264
03:00+5юз347940 0.0 101361
06:00+4ююз368099 0.0 1012116
09:00+10ю5768100 0.0 1011490
12:00+13ююз6957100 0.2 10101742
15:00+10ююв31090100 1.8 1007577
18:00+14зюз5977100 0.7 1005988
21:00+10ююз3590100 0.8 1006112
8 мая, сб
сб800:00+9зюз2291100 0.1 100634
03:00+9зсз3794100 0.4 1006187
06:00+8з3796100 1.3 1006351
09:00+6з4993100 6.5 1009951
12:00+8з787097 0.6 10101202
15:00+5зсз71094100 0.8 1013848
18:00+8зсз6117457 0.4 10151220
21:00+5зсз511855 0.7 1017471
9 мая, вс
вс900:00+3зсз614880 0.0 1019391
03:00+2зсз49930 0.0 1021225
06:00+2з38955 0.0 1023196
09:00+8зсз467218 0.0 1024571
12:00+12зсз465445 0.0 10241723
15:00+14сз344290 0.0 10242207
18:00+14с124353 0.0 10241393
21:00+9ююв226532 0.0 102623
10 мая, пн
пн1000:00+6ююз22705 0.0 102717
03:00+5ююз22740 0.0 102818
06:00+5ююв22745 0.0 102811
09:00+11ююв34580 0.0 1029385
12:00+15ююв45460 0.0 10281482
15:00+17ююв34420 0.0 10271589
18:00+17вюв33470 0.0 10261508
21:00+11вюв33663 0.0 102742
11 мая, вт
вт1100:00+8вюв34704 0.0 102748
03:00+6в22750 0.0 102715
06:00+6в23810 0.0 102736
09:00+12в46600 0.0 1026440
12:00+17в45470 0.0 1024888
15:00+20в44470 0.0 10221107
18:00+20всв46570 0.0 10211062
21:00+14всв388313 0.0 1021115